Simultaneous Nadir Overpasses (SNOs) Predictions

Prediction of SNOs between METOP-B and NOAA-19 Satellite Orbit:

Table of predicted SNOs for the next 14.0 days since TLE Epoch: 10/16/2021
Index Date (METOP-B) Time (METOP-B) Lat,Lon (METOP-B) SZA (METOP-B ) Date (NOAA-19) Time (NOAA-19) Lat,Lon (NOAA-19) SZA (NOAA-19 ) Distance(km) Time Diff (sec)
1 10/22/2021 21:31:20 -80.66, 67.65 86.43 10/22/2021 21:30:11 -80.67, 67.73 86.44 1.71 69
2 10/22/2021 22:22:00 80.66,-125.01 93.59 10/22/2021 22:21:15 80.67,-124.99 93.58 0.79 45
3 10/22/2021 23:12:42 -80.65, 42.18 86.42 10/22/2021 23:12:11 -80.66, 42.31 86.41 2.93 31
4 10/23/2021 00:03:21 80.65,-150.49 93.60 10/23/2021 00:03:14 80.66,-150.41 93.61 1.94 7
5 10/23/2021 00:54:02 -80.66, 17.04 86.37 10/23/2021 00:54:10 -80.66, 16.89 86.38 2.64 8
6 10/23/2021 01:44:43 80.64,-175.96 93.60 10/23/2021 01:45:14 80.66,-175.84 93.64 3.12 31
7 10/23/2021 02:35:24 -80.65, -8.44 86.36 10/23/2021 02:36:10 -80.66, -8.53 86.35 1.69 46



Historial Predications of SNOs between METOP-B and NOAA-19
